Flag for U.S.A. Weather past 2 weeks in Wichita, Kansas, U.S.A.

Now
50 °F

Mostly cloudy.


Feels Like: 46 °F
Forecast: 30 / 47 °F
Wind: 12 mph from Northwest

Location: Wichita Mid-Continent Airport

Current Time: Mar 3, 2015 at 12:50:27 PM

Latest Report: Mar 3, 2015 at 11:53 AM


Visibility: 10 mi

Pressure: 29.84 "Hg

Humidity: 66%

Dew point: 39 °F

Location of WichitaLocation

Historic Weather in Wichita — Graph

°F

Wichita temperature yesterday

Maximum temperature yesterday: 35 °F (at 1:53 PM)
Minimum temperature yesterday: 17 °F (at 12:53 AM)
Average temperature yesterday: 29 °F

Past Weeks' High & Low Weather Summary

 TemperatureHumidityPressure
High56 °F (Feb 25, 3:53 PM)100% (Feb 20, 11:53 PM)30.78 "Hg (Feb 20, 11:53 PM)
Low11 °F (Feb 27, 3:53 AM)21% (Feb 18, 3:53 PM)29.74 "Hg (Feb 25, 2:53 PM)
Average27 °F64%30.28 "Hg
* Reported Feb 16 11:53 AM — Mar 3 11:53 AM, Wichita, Weather by CustomWeather, © 2015

Note: Actual official high and low records may vary slightly from our data, if they occured in-between our weather recording intervals... More about our weather records

Advertising

Wichita weather history for previous 24 hours

 ConditionsComfort  
Time TempWeatherWind HumidityBarometerVisibility
11:53 AM
Tue, Mar 3
50 °FMostly cloudy.12 mph66%29.84 "Hg10 mi
10:53 AM44 °FMostly cloudy.10 mph76%29.85 "Hg10 mi
9:53 AM41 °FSunny.10 mph82%29.83 "Hg9 mi
8:53 AM39 °FMostly cloudy.15 mph86%29.79 "Hg8 mi
7:53 AM37 °FFog.17 mph89%29.77 "Hg6 mi
6:53 AM37 °FMostly cloudy.16 mph89%29.77 "Hg7 mi
5:53 AM36 °FFog.20 mph92%29.78 "Hg6 mi
4:53 AM36 °FFog.18 mph89%29.77 "Hg5 mi
3:53 AM35 °FFog.23 mph92%29.79 "Hg3 mi
2:53 AM34 °FFog.21 mph92%29.83 "Hg1 mi
1:53 AM33 °FFog.23 mph96%29.87 "Hg1 mi
12:53 AM33 °FFog.20 mph96%29.90 "Hg1 mi
11:53 PM
Mon, Mar 2
33 °FFog.23 mph92%29.94 "Hg2 mi
11:03 PM32 °FIce fog.23 mph92%29.96 "Hg2 mi
10:53 PM32 °FIce fog.22 mph92%30.00 "Hg3 mi
9:53 PM31 °FIce fog.17 mph92%30.03 "Hg2 mi
8:53 PM32 °FIce fog.21 mph85%30.05 "Hg6 mi
7:53 PM32 °FMostly cloudy.16 mph82%30.10 "Hg8 mi
6:53 PM32 °FMostly cloudy.13 mph79%30.14 "Hg8 mi
5:53 PM33 °FMostly cloudy.12 mph78%30.16 "Hg9 mi
4:53 PM34 °FMostly cloudy.14 mph73%30.16 "Hg10 mi
3:53 PM35 °FCloudy.12 mph64%30.21 "Hg10 mi
2:53 PM35 °FOvercast.13 mph59%30.24 "Hg10 mi
1:53 PM35 °FOvercast.10 mph52%30.28 "Hg10 mi
12:53 PM34 °FMostly cloudy.13 mph52%30.33 "Hg10 mi
Weather by CustomWeather, © 2015

See weather overviewHow to use our weather pages